TAM9540 SBFZ-SDSC

Flight info

Callsign TAM9540
Flight time 3h 53m
Altitude 36000
Route ERUGU1A ERUGU UN741 BIXAN UM654 PUGOR DCT
Aircraft A321/M-SDE3FGHIRWY/LB1

Departure

Time 2026-04-27 15:21
Airport Pinto Martins International Airport (SBFZ)

Arrival

Time 2026-04-27 19:15
Airport Mário Pereira Lopes–São Carlos International Airport (SDSC)
Time Latitude Longitude Altitude Speed Heading
2026-04-27 15:14 -3.77803 -38.53951 139 ft 0 kts 239°
2026-04-27 15:16 -3.77801 -38.53948 144 ft 2 kts 238°
2026-04-27 15:16 -3.77793 -38.53934 87 ft 2 kts 240°
2026-04-27 15:16 -3.77784 -38.53920 86 ft 2 kts 239°
2026-04-27 15:16 -3.77776 -38.53905 89 ft 2 kts 242°
2026-04-27 15:17 -3.77769 -38.53891 88 ft 2 kts 253°
2026-04-27 15:17 -3.77768 -38.53876 88 ft 1 kts 314°
2026-04-27 15:17 -3.77769 -38.53875 88 ft 0 kts 315°
2026-04-27 15:18 -3.77761 -38.53883 88 ft 3 kts 313°
2026-04-27 15:18 -3.77741 -38.53905 88 ft 6 kts 312°
2026-04-27 15:18 -3.77716 -38.53947 86 ft 9 kts 291°
2026-04-27 15:18 -3.77695 -38.54022 87 ft 13 kts 284°
2026-04-27 15:19 -3.77671 -38.54113 88 ft 14 kts 284°
2026-04-27 15:19 -3.77647 -38.54205 88 ft 14 kts 284°
2026-04-27 15:19 -3.77622 -38.54300 88 ft 14 kts 284°
2026-04-27 15:19 -3.77568 -38.54376 88 ft 14 kts 337°
2026-04-27 15:20 -3.77485 -38.54420 91 ft 14 kts 295°
2026-04-27 15:20 -3.77446 -38.54507 90 ft 12 kts 324°
2026-04-27 15:20 -3.77393 -38.54506 93 ft 11 kts
2026-04-27 15:20 -3.77318 -38.54476 92 ft 11 kts 51°
2026-04-27 15:21 -3.77339 -38.54349 94 ft 45 kts 105°
2026-04-27 15:21 -3.77483 -38.53811 87 ft 113 kts 105°
2026-04-27 15:21 -3.77731 -38.52881 146 ft 158 kts 104°
2026-04-27 15:21 -3.78015 -38.51838 835 ft 155 kts 105°
2026-04-27 15:22 -3.78310 -38.50799 1433 ft 156 kts 105°
2026-04-27 15:22 -3.78623 -38.49692 1643 ft 176 kts 107°
2026-04-27 15:22 -3.78979 -38.48438 1861 ft 199 kts 105°
2026-04-27 15:22 -3.79456 -38.47058 2055 ft 222 kts 120°
2026-04-27 15:23 -3.80707 -38.46039 2300 ft 250 kts 160°
2026-04-27 15:23 -3.82470 -38.45976 2882 ft 262 kts 189°
2026-04-27 15:23 -3.84257 -38.46357 3640 ft 263 kts 191°
2026-04-27 15:23 -3.86050 -38.46753 4393 ft 265 kts 191°
2026-04-27 15:24 -3.87857 -38.47154 5112 ft 267 kts 191°
2026-04-27 15:24 -3.89681 -38.47555 5829 ft 269 kts 190°
2026-04-27 15:24 -3.91516 -38.47955 6505 ft 272 kts 190°
2026-04-27 15:24 -3.93385 -38.48359 7129 ft 276 kts 191°
2026-04-27 15:25 -3.95276 -38.48767 7770 ft 280 kts 191°
2026-04-27 15:25 -3.97194 -38.49181 8416 ft 284 kts 191°
2026-04-27 15:25 -3.99126 -38.49637 9051 ft 287 kts 192°
2026-04-27 15:25 -4.01079 -38.50130 9649 ft 292 kts 192°
2026-04-27 15:26 -4.03058 -38.50644 10166 ft 298 kts 193°
2026-04-27 15:26 -4.05136 -38.51185 10288 ft 319 kts 193°
2026-04-27 15:26 -4.07353 -38.51758 10417 ft 338 kts 193°
2026-04-27 15:26 -4.09666 -38.52354 10775 ft 346 kts 193°
2026-04-27 15:27 -4.12008 -38.52956 11303 ft 349 kts 193°
2026-04-27 15:27 -4.14366 -38.53558 11883 ft 350 kts 192°
2026-04-27 15:27 -4.16733 -38.54162 12431 ft 353 kts 193°
2026-04-27 15:27 -4.19095 -38.54762 12934 ft 356 kts 193°
2026-04-27 15:28 -4.21507 -38.55375 13436 ft 360 kts 193°
2026-04-27 15:28 -4.23942 -38.55993 13944 ft 362 kts 193°
2026-04-27 15:28 -4.26391 -38.56616 14402 ft 365 kts 193°
2026-04-27 15:28 -4.28861 -38.57244 14852 ft 368 kts 193°
2026-04-27 15:29 -4.31351 -38.57874 15289 ft 370 kts 193°
2026-04-27 15:29 -4.33861 -38.58508 15741 ft 373 kts 193°
2026-04-27 15:29 -4.36388 -38.59148 16186 ft 376 kts 193°
2026-04-27 15:29 -4.38931 -38.59796 16621 ft 378 kts 193°
2026-04-27 15:30 -4.41492 -38.60449 17046 ft 381 kts 193°
2026-04-27 15:30 -4.44069 -38.61104 17471 ft 384 kts 193°
2026-04-27 15:30 -4.46670 -38.61764 17894 ft 386 kts 193°
2026-04-27 15:30 -4.49254 -38.62549 18276 ft 391 kts 200°
2026-04-27 15:31 -4.51736 -38.63704 18635 ft 394 kts 204°
2026-04-27 15:31 -4.54216 -38.64899 19003 ft 397 kts 204°
2026-04-27 15:31 -4.56714 -38.66105 19374 ft 400 kts 204°
2026-04-27 15:31 -4.59231 -38.67316 19728 ft 402 kts 204°
2026-04-27 15:32 -4.61766 -38.68530 20072 ft 404 kts 204°
2026-04-27 15:32 -4.64311 -38.69746 20402 ft 407 kts 204°
2026-04-27 15:32 -4.66876 -38.70973 20734 ft 409 kts 204°
2026-04-27 15:32 -4.69452 -38.72207 21067 ft 412 kts 204°
2026-04-27 15:33 -4.72045 -38.73449 21394 ft 414 kts 204°
2026-04-27 15:33 -4.74652 -38.74697 21720 ft 416 kts 204°
2026-04-27 15:33 -4.77278 -38.75956 22001 ft 420 kts 204°
2026-04-27 15:33 -4.79917 -38.77222 22278 ft 423 kts 204°
2026-04-27 15:34 -4.82576 -38.78499 22589 ft 425 kts 204°
2026-04-27 15:34 -4.85253 -38.79786 22890 ft 428 kts 204°
2026-04-27 15:34 -4.87946 -38.81079 23189 ft 430 kts 204°
2026-04-27 15:34 -4.90652 -38.82379 23492 ft 432 kts 204°
2026-04-27 15:35 -4.93368 -38.83685 23754 ft 435 kts 204°
2026-04-27 15:35 -4.96103 -38.85002 24023 ft 437 kts 204°
2026-04-27 15:35 -4.98844 -38.86324 24296 ft 438 kts 204°
2026-04-27 15:35 -5.01561 -38.87636 24581 ft 440 kts 204°
2026-04-27 15:36 -5.04326 -38.88971 24854 ft 441 kts 204°
2026-04-27 15:36 -5.07099 -38.90308 25099 ft 444 kts 204°
2026-04-27 15:36 -5.09890 -38.91650 25365 ft 446 kts 204°
2026-04-27 15:36 -5.12692 -38.93000 25642 ft 447 kts 204°
2026-04-27 15:37 -5.15503 -38.94355 25918 ft 449 kts 204°
2026-04-27 15:37 -5.18320 -38.95710 26190 ft 450 kts 204°
2026-04-27 15:37 -5.21153 -38.97070 26467 ft 451 kts 204°
2026-04-27 15:37 -5.23988 -38.98435 26741 ft 453 kts 204°
2026-04-27 15:38 -5.26834 -38.99807 27007 ft 454 kts 204°
2026-04-27 15:38 -5.29687 -39.01184 27275 ft 456 kts 204°
2026-04-27 15:38 -5.32547 -39.02563 27544 ft 457 kts 204°
2026-04-27 15:38 -5.35423 -39.03948 27769 ft 460 kts 204°
2026-04-27 15:39 -5.38317 -39.05342 28017 ft 462 kts 204°
2026-04-27 15:39 -5.41217 -39.06740 28270 ft 464 kts 204°
2026-04-27 15:39 -5.44131 -39.08143 28526 ft 465 kts 204°
2026-04-27 15:39 -5.47055 -39.09549 28782 ft 467 kts 204°
2026-04-27 15:40 -5.49985 -39.10956 29041 ft 468 kts 204°
2026-04-27 15:40 -5.52927 -39.12372 29293 ft 470 kts 204°
2026-04-27 15:40 -5.55878 -39.13791 29539 ft 471 kts 204°
2026-04-27 15:40 -5.58838 -39.15216 29772 ft 472 kts 204°
2026-04-27 15:41 -5.61808 -39.16649 29987 ft 474 kts 204°
2026-04-27 15:41 -5.64794 -39.18091 30143 ft 477 kts 204°
2026-04-27 15:41 -5.67786 -39.19535 30314 ft 478 kts 204°
2026-04-27 15:41 -5.70790 -39.20982 30488 ft 480 kts 204°
2026-04-27 15:42 -5.73804 -39.22433 30656 ft 481 kts 204°
2026-04-27 15:42 -5.76823 -39.23886 30841 ft 481 kts 204°
2026-04-27 15:42 -5.79839 -39.25341 31089 ft 481 kts 204°
2026-04-27 15:42 -5.82848 -39.26796 31329 ft 480 kts 204°
2026-04-27 15:43 -5.85858 -39.28250 31574 ft 479 kts 204°
2026-04-27 15:43 -5.88858 -39.29696 31817 ft 479 kts 204°
2026-04-27 15:43 -5.91859 -39.31142 32057 ft 478 kts 203°
2026-04-27 15:43 -5.94855 -39.32585 32296 ft 477 kts 203°
2026-04-27 15:44 -5.97847 -39.34026 32546 ft 477 kts 203°
2026-04-27 15:44 -6.00834 -39.35468 32797 ft 476 kts 203°
2026-04-27 15:44 -6.03814 -39.36908 33044 ft 475 kts 203°
2026-04-27 15:44 -6.06791 -39.38349 33308 ft 474 kts 204°
2026-04-27 15:45 -6.09716 -39.39766 33561 ft 473 kts 204°
2026-04-27 15:45 -6.12686 -39.41202 33810 ft 473 kts 204°
2026-04-27 15:45 -6.15645 -39.42629 34040 ft 472 kts 203°
2026-04-27 15:45 -6.18602 -39.44057 34242 ft 471 kts 203°
2026-04-27 15:46 -6.21560 -39.45486 34439 ft 471 kts 203°
2026-04-27 15:46 -6.24509 -39.46912 34635 ft 471 kts 203°
2026-04-27 15:46 -6.27461 -39.48338 34842 ft 471 kts 203°
2026-04-27 15:46 -6.30418 -39.49768 35023 ft 470 kts 203°
2026-04-27 15:47 -6.33367 -39.51193 35219 ft 470 kts 203°
2026-04-27 15:47 -6.36313 -39.52613 35406 ft 470 kts 203°
2026-04-27 15:47 -6.39265 -39.54037 35601 ft 470 kts 203°
2026-04-27 15:47 -6.42207 -39.55459 35787 ft 469 kts 203°
2026-04-27 15:48 -6.45155 -39.56882 35930 ft 470 kts 203°
2026-04-27 15:48 -6.48094 -39.58303 35970 ft 468 kts 203°
2026-04-27 15:49 -6.56886 -39.62553 35969 ft 467 kts 203°
2026-04-27 15:49 -6.62733 -39.65385 35969 ft 466 kts 203°
2026-04-27 15:50 -6.68580 -39.68214 35972 ft 466 kts 203°
2026-04-27 15:50 -6.74393 -39.71026 35975 ft 466 kts 203°
2026-04-27 15:51 -6.80246 -39.73866 35985 ft 467 kts 203°
2026-04-27 15:51 -6.86098 -39.76701 35989 ft 467 kts 203°
2026-04-27 15:52 -6.91958 -39.79539 35991 ft 467 kts 203°
2026-04-27 15:52 -6.97818 -39.82378 35990 ft 467 kts 203°
2026-04-27 15:53 -7.03674 -39.85219 36002 ft 467 kts 204°
2026-04-27 15:53 -7.09528 -39.88060 36004 ft 467 kts 204°
2026-04-27 15:54 -7.15385 -39.90895 36009 ft 467 kts 204°
2026-04-27 15:54 -7.21235 -39.93738 36008 ft 467 kts 204°
2026-04-27 15:55 -7.27086 -39.96577 36011 ft 467 kts 204°
2026-04-27 15:55 -7.32933 -39.99422 36013 ft 466 kts 204°
2026-04-27 15:56 -7.38772 -40.02261 36023 ft 466 kts 204°
2026-04-27 15:56 -7.44616 -40.05100 36024 ft 466 kts 204°
2026-04-27 15:57 -7.50420 -40.07916 36023 ft 466 kts 204°
2026-04-27 15:57 -7.56262 -40.10752 36020 ft 466 kts 204°
2026-04-27 15:58 -7.62097 -40.13595 36024 ft 466 kts 204°
2026-04-27 15:58 -7.67929 -40.16432 36019 ft 465 kts 204°
2026-04-27 15:59 -7.73758 -40.19275 36020 ft 465 kts 204°
2026-04-27 15:59 -7.79586 -40.22118 36019 ft 465 kts 204°
2026-04-27 16:00 -7.85416 -40.24951 36015 ft 465 kts 204°
2026-04-27 16:00 -7.91247 -40.27782 36017 ft 465 kts 204°
2026-04-27 16:01 -7.97081 -40.30622 36019 ft 465 kts 204°
2026-04-27 16:01 -8.02872 -40.33450 36015 ft 465 kts 204°
2026-04-27 16:02 -8.08699 -40.36298 36014 ft 465 kts 204°
2026-04-27 16:02 -8.14519 -40.39139 36016 ft 465 kts 204°
2026-04-27 16:03 -8.20337 -40.41976 36014 ft 464 kts 204°
2026-04-27 16:03 -8.26161 -40.44819 36013 ft 464 kts 204°
2026-04-27 16:04 -8.31977 -40.47656 36011 ft 464 kts 204°
2026-04-27 16:04 -8.37786 -40.50486 36008 ft 464 kts 204°
2026-04-27 16:05 -8.43609 -40.53328 36013 ft 464 kts 204°
2026-04-27 16:05 -8.49386 -40.56153 36012 ft 464 kts 204°
2026-04-27 16:06 -8.55191 -40.58997 36008 ft 464 kts 204°
2026-04-27 16:06 -8.61006 -40.61839 36008 ft 464 kts 204°
2026-04-27 16:07 -8.66813 -40.64678 36002 ft 464 kts 204°
2026-04-27 16:07 -8.72627 -40.67520 36001 ft 464 kts 204°
2026-04-27 16:08 -8.78434 -40.70362 36002 ft 464 kts 204°
2026-04-27 16:08 -8.83262 -40.72729 36001 ft 464 kts 204°
2026-04-27 16:09 -8.89076 -40.75575 35998 ft 464 kts 205°
2026-04-27 16:09 -8.97803 -40.79852 35999 ft 464 kts 204°
2026-04-27 16:10 -9.09431 -40.85558 36000 ft 464 kts 204°
2026-04-27 16:11 -9.18158 -40.89840 35997 ft 465 kts 204°
2026-04-27 16:12 -9.26894 -40.94124 35993 ft 466 kts 204°
2026-04-27 16:13 -9.35759 -40.98482 35986 ft 478 kts 204°
2026-04-27 16:13 -9.44809 -41.02933 35980 ft 483 kts 204°
2026-04-27 16:14 -9.56834 -41.08847 35982 ft 482 kts 204°
2026-04-27 16:15 -9.68920 -41.14788 35994 ft 483 kts 205°
2026-04-27 16:16 -9.81030 -41.20761 36001 ft 484 kts 205°
2026-04-27 16:17 -9.93153 -41.26749 36007 ft 485 kts 204°
2026-04-27 16:18 -10.05297 -41.32742 36009 ft 486 kts 205°
2026-04-27 16:19 -10.11388 -41.35746 36011 ft 487 kts 205°
2026-04-27 16:20 -10.23588 -41.41775 36018 ft 488 kts 205°
2026-04-27 16:21 -10.32759 -41.46309 36015 ft 489 kts 205°
2026-04-27 16:22 -10.44971 -41.52351 36012 ft 490 kts 205°
2026-04-27 16:22 -10.54160 -41.56912 36020 ft 489 kts 204°
2026-04-27 16:23 -10.63355 -41.61454 36012 ft 490 kts 204°
2026-04-27 16:24 -10.69480 -41.64489 36014 ft 490 kts 204°
2026-04-27 16:25 -10.81682 -41.70540 36008 ft 489 kts 205°
2026-04-27 16:26 -10.93883 -41.76605 36010 ft 488 kts 205°
2026-04-27 16:27 -11.06076 -41.82670 36011 ft 487 kts 205°
2026-04-27 16:28 -11.21312 -41.90248 36011 ft 487 kts 205°
2026-04-27 16:29 -11.36545 -41.97833 36012 ft 487 kts 205°
2026-04-27 16:30 -11.48697 -42.03905 36015 ft 488 kts 206°
2026-04-27 16:31 -11.63968 -42.11528 36021 ft 489 kts 205°
2026-04-27 16:32 -11.73142 -42.16113 36028 ft 489 kts 206°
2026-04-27 16:33 -11.82306 -42.20695 36029 ft 489 kts 206°
2026-04-27 16:33 -11.88412 -42.23741 36029 ft 488 kts 205°
2026-04-27 16:34 -11.94476 -42.26782 36031 ft 488 kts 206°
2026-04-27 16:34 -12.00572 -42.29845 36026 ft 488 kts 206°
2026-04-27 16:35 -12.06667 -42.32896 36027 ft 488 kts 206°
2026-04-27 16:36 -12.15808 -42.37467 36015 ft 487 kts 206°
2026-04-27 16:36 -12.21897 -42.40521 36011 ft 487 kts 206°
2026-04-27 16:37 -12.27989 -42.43578 36010 ft 487 kts 206°
2026-04-27 16:37 -12.34071 -42.46630 35995 ft 487 kts 206°
2026-04-27 16:38 -12.40151 -42.49680 35996 ft 487 kts 206°
2026-04-27 16:38 -12.46183 -42.52718 35994 ft 486 kts 206°
2026-04-27 16:39 -12.52258 -42.55781 35986 ft 486 kts 206°
2026-04-27 16:39 -12.58326 -42.58830 35988 ft 486 kts 206°
2026-04-27 16:40 -12.64390 -42.61887 35992 ft 486 kts 206°
2026-04-27 16:40 -12.70452 -42.64947 35989 ft 486 kts 206°
2026-04-27 16:41 -12.76520 -42.68006 35989 ft 486 kts 206°
2026-04-27 16:41 -12.82584 -42.71066 35992 ft 486 kts 206°
2026-04-27 16:42 -12.88648 -42.74128 35995 ft 486 kts 206°
2026-04-27 16:42 -12.94712 -42.77186 35994 ft 486 kts 206°
2026-04-27 16:43 -13.00773 -42.80248 35997 ft 486 kts 206°
2026-04-27 16:43 -13.06836 -42.83318 35996 ft 486 kts 206°
2026-04-27 16:44 -13.12893 -42.86387 35993 ft 486 kts 206°
2026-04-27 16:44 -13.18917 -42.89425 35995 ft 486 kts 206°
2026-04-27 16:45 -13.24977 -42.92489 35998 ft 486 kts 206°
2026-04-27 16:45 -13.31035 -42.95556 35992 ft 485 kts 206°
2026-04-27 16:46 -13.37094 -42.98628 35991 ft 486 kts 206°
2026-04-27 16:46 -13.43148 -43.01710 35991 ft 486 kts 206°
2026-04-27 16:47 -13.49199 -43.04784 35979 ft 485 kts 207°
2026-04-27 16:47 -13.55258 -43.07852 35980 ft 486 kts 206°
2026-04-27 16:48 -13.61315 -43.10929 35986 ft 486 kts 207°
2026-04-27 16:48 -13.67374 -43.14017 35991 ft 486 kts 207°
2026-04-27 16:49 -13.76457 -43.18633 35987 ft 485 kts 207°
2026-04-27 16:49 -13.82503 -43.21715 35983 ft 485 kts 207°
2026-04-27 16:50 -13.88551 -43.24791 35982 ft 484 kts 207°
2026-04-27 16:50 -13.94549 -43.27845 35979 ft 484 kts 207°
2026-04-27 16:51 -14.00582 -43.30926 35981 ft 484 kts 207°
2026-04-27 16:51 -14.06631 -43.33979 35984 ft 484 kts 206°
2026-04-27 16:52 -14.12686 -43.37014 35981 ft 484 kts 206°
2026-04-27 16:52 -14.18744 -43.40049 35989 ft 484 kts 207°
2026-04-27 16:53 -14.24791 -43.43107 35993 ft 484 kts 207°
2026-04-27 16:53 -14.30830 -43.46170 35992 ft 484 kts 207°
2026-04-27 16:54 -14.36885 -43.49221 35992 ft 484 kts 207°
2026-04-27 16:54 -14.42935 -43.52269 35997 ft 484 kts 207°
2026-04-27 16:55 -14.48982 -43.55327 35992 ft 484 kts 207°
2026-04-27 16:55 -14.55027 -43.58392 35993 ft 484 kts 207°
2026-04-27 16:56 -14.61079 -43.61451 35994 ft 484 kts 207°
2026-04-27 16:56 -14.67128 -43.64509 35991 ft 484 kts 207°
2026-04-27 16:57 -14.73179 -43.67571 35997 ft 484 kts 207°
2026-04-27 16:57 -14.79221 -43.70645 35995 ft 484 kts 207°
2026-04-27 16:58 -14.85269 -43.73719 35997 ft 484 kts 207°
2026-04-27 16:58 -14.90301 -43.76274 35997 ft 484 kts 207°
2026-04-27 16:59 -14.96354 -43.79346 35995 ft 484 kts 207°
2026-04-27 16:59 -15.02400 -43.82414 35996 ft 484 kts 207°
2026-04-27 17:00 -15.11492 -43.86983 36004 ft 484 kts 207°
2026-04-27 17:01 -15.17554 -43.90014 36004 ft 484 kts 207°
2026-04-27 17:01 -15.23613 -43.93062 36002 ft 484 kts 207°
2026-04-27 17:02 -15.29625 -43.96090 36003 ft 484 kts 207°
2026-04-27 17:02 -15.35686 -43.99140 36009 ft 483 kts 207°
2026-04-27 17:03 -15.41743 -44.02181 36011 ft 483 kts 207°
2026-04-27 17:03 -15.47788 -44.05233 36008 ft 483 kts 207°
2026-04-27 17:04 -15.53843 -44.08265 36015 ft 483 kts 207°
2026-04-27 17:04 -15.59923 -44.11260 36015 ft 483 kts 207°
2026-04-27 17:05 -15.65999 -44.14252 36015 ft 483 kts 207°
2026-04-27 17:05 -15.72019 -44.17239 36021 ft 483 kts 207°
2026-04-27 17:06 -15.78114 -44.20276 36020 ft 483 kts 207°
2026-04-27 17:06 -15.84139 -44.23268 36023 ft 483 kts 207°
2026-04-27 17:07 -15.90200 -44.26270 36022 ft 483 kts 207°
2026-04-27 17:07 -15.96255 -44.29282 36022 ft 483 kts 207°
2026-04-27 17:08 -16.02314 -44.32295 36026 ft 482 kts 207°
2026-04-27 17:08 -16.08369 -44.35303 36024 ft 482 kts 207°
2026-04-27 17:09 -16.14422 -44.38323 36016 ft 482 kts 207°
2026-04-27 17:09 -16.20471 -44.41347 36022 ft 482 kts 207°
2026-04-27 17:10 -16.26526 -44.44370 36021 ft 483 kts 207°
2026-04-27 17:10 -16.32544 -44.47374 36016 ft 483 kts 207°
2026-04-27 17:11 -16.38604 -44.50397 36022 ft 483 kts 207°
2026-04-27 17:11 -16.47689 -44.54946 36015 ft 483 kts 207°
2026-04-27 17:12 -16.56777 -44.59496 36015 ft 483 kts 207°
2026-04-27 17:13 -16.62834 -44.62525 36017 ft 483 kts 207°
2026-04-27 17:13 -16.68894 -44.65557 36017 ft 483 kts 207°
2026-04-27 17:14 -16.74944 -44.68601 36014 ft 483 kts 207°
2026-04-27 17:14 -16.81005 -44.71636 36009 ft 483 kts 207°
2026-04-27 17:15 -16.87057 -44.74681 36013 ft 483 kts 207°
2026-04-27 17:15 -16.93039 -44.77780 36012 ft 483 kts 208°
2026-04-27 17:16 -16.99038 -44.80931 36010 ft 483 kts 208°
2026-04-27 17:16 -17.05046 -44.84062 36012 ft 483 kts 208°
2026-04-27 17:17 -17.11059 -44.87192 36010 ft 483 kts 208°
2026-04-27 17:17 -17.17067 -44.90332 36010 ft 483 kts 208°
2026-04-27 17:18 -17.26083 -44.95032 36012 ft 483 kts 208°
2026-04-27 17:18 -17.32094 -44.98162 36015 ft 482 kts 208°
2026-04-27 17:19 -17.38101 -45.01302 36014 ft 482 kts 208°
2026-04-27 17:19 -17.44086 -45.04475 36013 ft 482 kts 209°
2026-04-27 17:20 -17.50018 -45.07757 36016 ft 482 kts 210°
2026-04-27 17:20 -17.55890 -45.11048 36016 ft 482 kts 210°
2026-04-27 17:21 -17.61816 -45.14331 36021 ft 482 kts 209°
2026-04-27 17:21 -17.67759 -45.17593 36020 ft 482 kts 209°
2026-04-27 17:22 -17.73752 -45.20743 36022 ft 482 kts 208°
2026-04-27 17:22 -17.79778 -45.23819 36022 ft 482 kts 207°
2026-04-27 17:23 -17.85811 -45.26907 36025 ft 482 kts 208°
2026-04-27 17:23 -17.91821 -45.30017 36023 ft 481 kts 208°
2026-04-27 17:24 -17.97820 -45.33159 36019 ft 481 kts 208°
2026-04-27 17:24 -18.03819 -45.36292 36019 ft 481 kts 208°
2026-04-27 17:25 -18.09816 -45.39417 36023 ft 481 kts 208°
2026-04-27 17:25 -18.15775 -45.42522 36025 ft 481 kts 208°
2026-04-27 17:26 -18.21775 -45.45642 36016 ft 481 kts 208°
2026-04-27 17:26 -18.27776 -45.48764 36016 ft 481 kts 208°
2026-04-27 17:27 -18.33766 -45.51894 36016 ft 481 kts 208°
2026-04-27 17:27 -18.39761 -45.55029 36018 ft 481 kts 208°
2026-04-27 17:28 -18.45743 -45.58172 36022 ft 480 kts 209°
2026-04-27 17:29 -18.54579 -45.63159 36022 ft 480 kts 211°
2026-04-27 17:29 -18.60448 -45.66527 36020 ft 480 kts 210°
2026-04-27 17:30 -18.66334 -45.69866 36020 ft 480 kts 210°
2026-04-27 17:30 -18.72104 -45.73117 35989 ft 461 kts 210°
2026-04-27 17:30 -18.74905 -45.74694 35993 ft 454 kts 210°
2026-04-27 17:31 -18.80461 -45.77829 36000 ft 452 kts 210°
2026-04-27 17:31 -18.85998 -45.80959 35997 ft 452 kts 210°
2026-04-27 17:32 -18.94295 -45.85678 36001 ft 451 kts 211°
2026-04-27 17:33 -18.99830 -45.88826 36002 ft 452 kts 211°
2026-04-27 17:33 -19.05372 -45.91973 36010 ft 452 kts 211°
2026-04-27 17:34 -19.10916 -45.95126 36018 ft 452 kts 211°
2026-04-27 17:34 -19.16456 -45.98286 36024 ft 453 kts 211°
2026-04-27 17:35 -19.22000 -46.01452 36029 ft 453 kts 211°
2026-04-27 17:35 -19.27546 -46.04612 36028 ft 453 kts 211°
2026-04-27 17:36 -19.33093 -46.07769 36031 ft 453 kts 211°
2026-04-27 17:36 -19.38634 -46.10934 36035 ft 453 kts 211°
2026-04-27 17:37 -19.44181 -46.14101 36035 ft 453 kts 211°
2026-04-27 17:37 -19.49722 -46.17271 36032 ft 452 kts 211°
2026-04-27 17:38 -19.55262 -46.20441 36029 ft 452 kts 211°
2026-04-27 17:38 -19.60770 -46.23585 36028 ft 452 kts 211°
2026-04-27 17:39 -19.66314 -46.26753 36032 ft 452 kts 211°
2026-04-27 17:39 -19.71849 -46.29932 36031 ft 452 kts 211°
2026-04-27 17:40 -19.77376 -46.33116 36032 ft 452 kts 211°
2026-04-27 17:40 -19.82905 -46.36302 36033 ft 452 kts 211°
2026-04-27 17:41 -19.88431 -46.39480 36031 ft 452 kts 211°
2026-04-27 17:41 -19.93965 -46.42656 36038 ft 452 kts 212°
2026-04-27 17:42 -19.99486 -46.45836 36033 ft 451 kts 212°
2026-04-27 17:42 -20.05002 -46.49022 36034 ft 451 kts 212°
2026-04-27 17:43 -20.10517 -46.52203 36025 ft 451 kts 212°
2026-04-27 17:43 -20.16029 -46.55381 36024 ft 451 kts 212°
2026-04-27 17:44 -20.21505 -46.58544 36021 ft 450 kts 212°
2026-04-27 17:44 -20.27006 -46.61722 36018 ft 450 kts 212°
2026-04-27 17:45 -20.32503 -46.64904 36012 ft 449 kts 212°
2026-04-27 17:45 -20.37990 -46.68090 36009 ft 449 kts 212°
2026-04-27 17:46 -20.43480 -46.71276 36002 ft 449 kts 212°
2026-04-27 17:46 -20.48967 -46.74456 35998 ft 449 kts 212°
2026-04-27 17:47 -20.54444 -46.77632 36008 ft 448 kts 212°
2026-04-27 17:47 -20.59928 -46.80813 35993 ft 448 kts 212°
2026-04-27 17:48 -20.65393 -46.84000 35983 ft 448 kts 212°
2026-04-27 17:48 -20.70884 -46.87200 35962 ft 451 kts 212°
2026-04-27 17:49 -20.76280 -46.90337 35974 ft 428 kts 212°
2026-04-27 17:49 -20.80378 -46.93079 35978 ft 410 kts 228°
2026-04-27 17:49 -20.82169 -46.95389 35975 ft 401 kts 244°
2026-04-27 17:50 -20.83275 -46.98086 35977 ft 394 kts 258°
2026-04-27 17:50 -20.83350 -47.03814 35970 ft 387 kts 287°
2026-04-27 17:50 -20.82346 -47.06469 35973 ft 387 kts 301°
2026-04-27 17:51 -20.80727 -47.08765 35973 ft 389 kts 314°
2026-04-27 17:51 -20.78597 -47.10548 35971 ft 392 kts 329°
2026-04-27 17:51 -20.76077 -47.11668 35967 ft 396 kts 344°
2026-04-27 17:51 -20.73329 -47.12022 35967 ft 402 kts 359°
2026-04-27 17:52 -20.70587 -47.11578 35963 ft 408 kts 14°
2026-04-27 17:52 -20.67941 -47.10441 35960 ft 412 kts 21°
2026-04-27 17:52 -20.62825 -47.07587 35956 ft 416 kts 26°
2026-04-27 17:53 -20.57808 -47.04455 35942 ft 419 kts 30°
2026-04-27 17:53 -20.55598 -47.02412 35948 ft 425 kts 47°
2026-04-27 17:53 -20.53970 -46.99764 35947 ft 430 kts 63°
2026-04-27 17:54 -20.53086 -46.96710 35948 ft 435 kts 81°
2026-04-27 17:54 -20.53076 -46.93480 35946 ft 438 kts 99°
2026-04-27 17:54 -20.53973 -46.90377 35946 ft 439 kts 117°
2026-04-27 17:54 -20.55691 -46.87707 35947 ft 437 kts 136°
2026-04-27 17:55 -20.58055 -46.85700 35969 ft 436 kts 154°
2026-04-27 17:55 -20.60853 -46.84505 35969 ft 432 kts 172°
2026-04-27 17:55 -20.63818 -46.84236 35968 ft 426 kts 189°
2026-04-27 17:55 -20.66682 -46.84877 35966 ft 418 kts 206°
2026-04-27 17:56 -20.71909 -46.87533 35976 ft 415 kts 213°
2026-04-27 17:56 -20.76928 -46.90586 35973 ft 415 kts 214°
2026-04-27 17:57 -20.81402 -46.94308 35979 ft 402 kts 238°
2026-04-27 17:57 -20.82761 -46.96829 35979 ft 395 kts 252°
2026-04-27 17:57 -20.83428 -46.99640 35973 ft 389 kts 267°
2026-04-27 17:58 -20.83359 -47.02501 35964 ft 385 kts 282°
2026-04-27 17:58 -20.82573 -47.05217 35955 ft 383 kts 296°
2026-04-27 17:58 -20.81137 -47.07606 35947 ft 383 kts 311°
2026-04-27 17:58 -20.79152 -47.09508 35945 ft 386 kts 325°
2026-04-27 17:59 -20.76746 -47.10782 35939 ft 390 kts 340°
2026-04-27 17:59 -20.74066 -47.11308 35939 ft 396 kts 355°
2026-04-27 17:59 -20.71311 -47.11013 35935 ft 403 kts 11°
2026-04-27 17:59 -20.68669 -47.09960 35937 ft 408 kts 20°
2026-04-27 18:00 -20.63583 -47.07163 35939 ft 414 kts 25°
2026-04-27 18:00 -20.58586 -47.04075 35933 ft 416 kts 28°
2026-04-27 18:01 -20.56341 -47.02103 35937 ft 423 kts 46°
2026-04-27 18:01 -20.54693 -46.99481 35939 ft 429 kts 63°
2026-04-27 18:01 -20.53805 -46.96432 35939 ft 434 kts 81°
2026-04-27 18:01 -20.53800 -46.93217 35937 ft 437 kts 99°
2026-04-27 18:02 -20.54722 -46.90140 35940 ft 437 kts 118°
2026-04-27 18:02 -20.56481 -46.87513 35969 ft 437 kts 137°
2026-04-27 18:02 -20.58907 -46.85580 35969 ft 436 kts 156°
2026-04-27 18:02 -20.61709 -46.84545 35970 ft 431 kts 174°
2026-04-27 18:03 -20.64670 -46.84437 35973 ft 423 kts 192°
2026-04-27 18:03 -20.67476 -46.85238 35972 ft 416 kts 207°
2026-04-27 18:03 -20.72654 -46.87964 35973 ft 414 kts 213°
2026-04-27 18:04 -20.77647 -46.91029 35970 ft 414 kts 214°
2026-04-27 18:04 -20.80015 -46.92743 35976 ft 408 kts 227°
2026-04-27 18:04 -20.81844 -46.95005 35975 ft 399 kts 242°
2026-04-27 18:05 -20.83013 -46.97651 35968 ft 392 kts 257°
2026-04-27 18:05 -20.83453 -47.00493 35966 ft 386 kts 272°
2026-04-27 18:05 -20.83153 -47.03319 35960 ft 383 kts 287°
2026-04-27 18:05 -20.82163 -47.05947 35950 ft 382 kts 301°
2026-04-27 18:06 -20.80551 -47.08195 35949 ft 383 kts 315°
2026-04-27 18:06 -20.78418 -47.09903 35943 ft 386 kts 330°
2026-04-27 18:06 -20.75904 -47.10942 35941 ft 391 kts 345°
2026-04-27 18:06 -20.73187 -47.11210 35938 ft 397 kts
2026-04-27 18:07 -20.70457 -47.10650 35937 ft 405 kts 17°
2026-04-27 18:07 -20.67857 -47.09454 35937 ft 409 kts 22°
2026-04-27 18:07 -20.62811 -47.06568 35941 ft 413 kts 26°
2026-04-27 18:08 -20.57892 -47.03439 35927 ft 418 kts 34°
2026-04-27 18:08 -20.55822 -47.01247 35930 ft 424 kts 51°
2026-04-27 18:08 -20.54397 -46.98476 35935 ft 430 kts 69°
2026-04-27 18:09 -20.53784 -46.95349 35934 ft 434 kts 87°
2026-04-27 18:09 -20.54096 -46.92151 35937 ft 436 kts 106°
2026-04-27 18:09 -20.55319 -46.89212 35944 ft 436 kts 125°
2026-04-27 18:09 -20.57330 -46.86802 35973 ft 436 kts 144°
2026-04-27 18:10 -20.59922 -46.85153 35970 ft 433 kts 162°
2026-04-27 18:10 -20.62827 -46.84421 35969 ft 427 kts 181°
2026-04-27 18:10 -20.65753 -46.84643 35971 ft 419 kts 198°
2026-04-27 18:10 -20.68464 -46.85702 35975 ft 414 kts 209°
2026-04-27 18:11 -20.73581 -46.88520 35971 ft 413 kts 213°
2026-04-27 18:11 -20.78547 -46.91589 35974 ft 412 kts 216°
2026-04-27 18:12 -20.80742 -46.93494 35971 ft 403 kts 232°
2026-04-27 18:12 -20.82330 -46.95916 35970 ft 395 kts 248°
2026-04-27 18:12 -20.83238 -46.98649 35967 ft 388 kts 262°
2026-04-27 18:12 -20.83410 -47.01498 35962 ft 383 kts 277°
2026-04-27 18:13 -20.82848 -47.04265 35948 ft 381 kts 292°
2026-04-27 18:13 -20.81611 -47.06754 35943 ft 381 kts 307°
2026-04-27 18:13 -20.79789 -47.08804 35938 ft 383 kts 321°
2026-04-27 18:13 -20.77502 -47.10273 35938 ft 386 kts 335°
2026-04-27 18:14 -20.74898 -47.11033 35936 ft 392 kts 351°
2026-04-27 18:14 -20.72160 -47.10988 35934 ft 399 kts
2026-04-27 18:14 -20.69523 -47.10123 35936 ft 406 kts 20°
2026-04-27 18:14 -20.66953 -47.08842 35936 ft 409 kts 23°
2026-04-27 18:15 -20.61945 -47.05899 35940 ft 413 kts 26°
2026-04-27 18:15 -20.57101 -47.02580 35927 ft 419 kts 41°
2026-04-27 18:16 -20.55273 -47.00140 35932 ft 425 kts 58°
2026-04-27 18:16 -20.54159 -46.97207 35936 ft 430 kts 76°
2026-04-27 18:16 -20.53910 -46.94026 35934 ft 434 kts 95°
2026-04-27 18:16 -20.54589 -46.90897 35933 ft 435 kts 114°
2026-04-27 18:17 -20.56143 -46.88145 35963 ft 435 kts 133°
2026-04-27 18:17 -20.58417 -46.86027 35970 ft 435 kts 152°
2026-04-27 18:17 -20.61165 -46.84755 35969 ft 430 kts 170°
2026-04-27 18:17 -20.64109 -46.84418 35970 ft 423 kts 188°
2026-04-27 18:18 -20.66955 -46.85020 35973 ft 415 kts 205°
2026-04-27 18:18 -20.69588 -46.86258 35978 ft 413 kts 210°
2026-04-27 18:18 -20.74637 -46.89159 35975 ft 412 kts 214°
2026-04-27 18:19 -20.79532 -46.92318 35966 ft 407 kts 223°
2026-04-27 18:19 -20.81451 -46.94426 35973 ft 398 kts 239°
2026-04-27 18:19 -20.82760 -46.96996 35974 ft 391 kts 253°
2026-04-27 18:20 -20.83362 -46.99798 35963 ft 385 kts 269°
2026-04-27 18:20 -20.83231 -47.02627 35957 ft 381 kts 283°
2026-04-27 18:20 -20.82386 -47.05294 35947 ft 379 kts 298°
2026-04-27 18:20 -20.80891 -47.07616 35940 ft 380 kts 313°
2026-04-27 18:21 -20.78859 -47.09424 35939 ft 383 kts 327°
2026-04-27 18:21 -20.76423 -47.10588 35937 ft 387 kts 342°
2026-04-27 18:21 -20.73744 -47.11009 35943 ft 394 kts 358°
2026-04-27 18:21 -20.71010 -47.10604 35935 ft 401 kts 14°
2026-04-27 18:22 -20.65874 -47.08126 35935 ft 409 kts 24°
2026-04-27 18:22 -20.60898 -47.05122 35938 ft 412 kts 26°
2026-04-27 18:23 -20.56285 -47.01471 35929 ft 421 kts 49°
2026-04-27 18:23 -20.54769 -46.98786 35934 ft 427 kts 66°
2026-04-27 18:23 -20.54037 -46.95712 35932 ft 431 kts 84°
2026-04-27 18:24 -20.54209 -46.92518 35935 ft 433 kts 103°
2026-04-27 18:24 -20.55300 -46.89536 35945 ft 433 kts 123°
2026-04-27 18:24 -20.57209 -46.87058 35973 ft 434 kts 142°
2026-04-27 18:24 -20.59738 -46.85320 35971 ft 432 kts 161°
2026-04-27 18:25 -20.62606 -46.84495 35968 ft 426 kts 179°
2026-04-27 18:25 -20.65529 -46.84625 35972 ft 418 kts 197°
2026-04-27 18:25 -20.68254 -46.85616 35978 ft 412 kts 208°
2026-04-27 18:25 -20.70841 -46.86940 35972 ft 412 kts 211°
2026-04-27 18:26 -20.75808 -46.89883 35973 ft 411 kts 214°
2026-04-27 18:26 -20.80522 -46.93252 35969 ft 402 kts 231°
2026-04-27 18:27 -20.82166 -46.95617 35967 ft 394 kts 246°
2026-04-27 18:27 -20.83142 -46.98322 35967 ft 387 kts 261°
2026-04-27 18:27 -20.83378 -47.01160 35960 ft 382 kts 276°
2026-04-27 18:27 -20.82878 -47.03928 35948 ft 379 kts 291°
2026-04-27 18:28 -20.81698 -47.06436 35944 ft 379 kts 305°
2026-04-27 18:28 -20.79924 -47.08517 35942 ft 381 kts 320°
2026-04-27 18:28 -20.77674 -47.10022 35938 ft 385 kts 335°
2026-04-27 18:28 -20.75126 -47.10813 35937 ft 390 kts 350°
2026-04-27 18:29 -20.72397 -47.10822 35937 ft 397 kts
2026-04-27 18:29 -20.69687 -47.09984 35938 ft 404 kts 20°
2026-04-27 18:29 -20.64648 -47.07308 35937 ft 410 kts 25°
2026-04-27 18:30 -20.59685 -47.04265 35943 ft 412 kts 26°
2026-04-27 18:30 -20.57321 -47.02513 35927 ft 418 kts 40°
2026-04-27 18:30 -20.55478 -47.00099 35930 ft 424 kts 58°
2026-04-27 18:31 -20.54347 -46.97182 35937 ft 429 kts 76°
2026-04-27 18:31 -20.54086 -46.94007 35933 ft 432 kts 94°
2026-04-27 18:31 -20.54758 -46.90894 35935 ft 433 kts 114°
2026-04-27 18:31 -20.56310 -46.88152 35966 ft 434 kts 133°
2026-04-27 18:32 -20.58578 -46.86041 35972 ft 433 kts 152°
2026-04-27 18:32 -20.61322 -46.84785 35973 ft 428 kts 171°
2026-04-27 18:32 -20.64248 -46.84475 35971 ft 421 kts 188°
2026-04-27 18:32 -20.67082 -46.85095 35972 ft 413 kts 206°
2026-04-27 18:33 -20.72236 -46.87734 35975 ft 410 kts 213°
2026-04-27 18:33 -20.77197 -46.90747 35974 ft 410 kts 214°
2026-04-27 18:34 -20.81509 -46.94523 35971 ft 396 kts 239°
2026-04-27 18:34 -20.82784 -46.97092 35970 ft 389 kts 254°
2026-04-27 18:34 -20.83347 -46.99888 35965 ft 383 kts 269°
2026-04-27 18:35 -20.83163 -47.02707 35958 ft 380 kts 284°
2026-04-27 18:35 -20.82269 -47.05344 35949 ft 378 kts 299°
2026-04-27 18:35 -20.80738 -47.07624 35946 ft 380 kts 314°
2026-04-27 18:35 -20.78670 -47.09387 35945 ft 383 kts 328°
2026-04-27 18:36 -20.76206 -47.10494 35937 ft 388 kts 343°
2026-04-27 18:36 -20.73550 -47.10835 35937 ft 394 kts 359°
2026-04-27 18:36 -20.70829 -47.10353 35937 ft 402 kts 15°
2026-04-27 18:36 -20.68238 -47.09195 35940 ft 406 kts 21°
2026-04-27 18:37 -20.63210 -47.06351 35944 ft 411 kts 26°
2026-04-27 18:37 -20.58274 -47.03225 35929 ft 415 kts 34°
2026-04-27 18:38 -20.56196 -47.01062 35932 ft 422 kts 51°
2026-04-27 18:38 -20.54771 -46.98313 35936 ft 427 kts 69°
2026-04-27 18:38 -20.54165 -46.95207 35932 ft 431 kts 87°
2026-04-27 18:38 -20.54481 -46.92030 35935 ft 433 kts 106°
2026-04-27 18:39 -20.55713 -46.89109 35953 ft 433 kts 126°
2026-04-27 18:39 -20.57729 -46.86734 35969 ft 434 kts 145°
2026-04-27 18:39 -20.60320 -46.85133 35968 ft 430 kts 163°
2026-04-27 18:39 -20.63212 -46.84467 35971 ft 423 kts 182°
2026-04-27 18:40 -20.65141 -46.84562 35971 ft 417 kts 194°
2026-04-27 18:40 -20.67886 -46.85447 35971 ft 411 kts 208°
2026-04-27 18:40 -20.72990 -46.88178 35973 ft 409 kts 213°
2026-04-27 18:41 -20.77925 -46.91204 35971 ft 409 kts 214°
2026-04-27 18:41 -20.80222 -46.92950 35973 ft 402 kts 229°
2026-04-27 18:41 -20.81953 -46.95241 35968 ft 393 kts 244°
2026-04-27 18:42 -20.83013 -46.97900 35969 ft 386 kts 259°
2026-04-27 18:42 -20.83315 -46.99762 35964 ft 383 kts 269°
2026-04-27 18:42 -20.82935 -47.03498 35952 ft 378 kts 289°
2026-04-27 18:42 -20.81838 -47.06039 35945 ft 378 kts 303°
2026-04-27 18:43 -20.80134 -47.08171 35941 ft 380 kts 318°
2026-04-27 18:43 -20.77938 -47.09742 35939 ft 383 kts 333°
2026-04-27 18:43 -20.75390 -47.10620 35940 ft 389 kts 348°
2026-04-27 18:43 -20.72673 -47.10701 35936 ft 396 kts
2026-04-27 18:44 -20.70027 -47.09960 35937 ft 403 kts 19°
2026-04-27 18:44 -20.67464 -47.08713 35943 ft 406 kts 22°
2026-04-27 18:44 -20.62469 -47.05803 35939 ft 411 kts 26°
2026-04-27 18:45 -20.57615 -47.02549 35928 ft 417 kts 39°
2026-04-27 18:45 -20.55730 -47.00180 35933 ft 423 kts 56°
2026-04-27 18:45 -20.54553 -46.97296 35937 ft 428 kts 75°
2026-04-27 18:46 -20.54241 -46.94136 35936 ft 431 kts 94°
2026-04-27 18:46 -20.54864 -46.91013 35935 ft 432 kts 112°
2026-04-27 18:46 -20.56370 -46.88253 35967 ft 433 kts 132°
2026-04-27 18:46 -20.58609 -46.86121 35973 ft 432 kts 151°
2026-04-27 18:47 -20.61331 -46.84837 35971 ft 427 kts 170°
2026-04-27 18:47 -20.64250 -46.84503 35975 ft 419 kts 188°
2026-04-27 18:47 -20.67071 -46.85105 35973 ft 411 kts 205°
2026-04-27 18:47 -20.69677 -46.86332 35975 ft 410 kts 210°
2026-04-27 18:48 -20.74692 -46.89203 35970 ft 408 kts 214°
2026-04-27 18:48 -20.79552 -46.92331 35964 ft 404 kts 224°
2026-04-27 18:49 -20.81472 -46.94468 35973 ft 395 kts 239°
2026-04-27 18:49 -20.82742 -46.97029 35976 ft 388 kts 254°
2026-04-27 18:49 -20.83299 -46.99820 35972 ft 382 kts 269°
2026-04-27 18:49 -20.83118 -47.02630 35966 ft 379 kts 284°
2026-04-27 18:50 -20.82221 -47.05264 35952 ft 377 kts 299°
2026-04-27 18:50 -20.80685 -47.07533 35948 ft 379 kts 314°
2026-04-27 18:50 -20.78645 -47.09264 35945 ft 382 kts 328°
2026-04-27 18:50 -20.76181 -47.10362 35942 ft 387 kts 343°
2026-04-27 18:51 -20.73490 -47.10688 35941 ft 394 kts 359°
2026-04-27 18:51 -20.70777 -47.10175 35943 ft 401 kts 16°
2026-04-27 18:51 -20.65665 -47.07622 35941 ft 409 kts 24°
2026-04-27 18:52 -20.60702 -47.04613 35940 ft 411 kts 26°
2026-04-27 18:53 -20.54840 -46.98047 35937 ft 427 kts 70°
2026-04-27 18:53 -20.54299 -46.94928 35935 ft 430 kts 89°
2026-04-27 18:53 -20.54681 -46.91767 35935 ft 432 kts 108°
2026-04-27 18:53 -20.55971 -46.88892 35960 ft 432 kts 127°
2026-04-27 18:54 -20.58034 -46.86569 35831 ft 433 kts 146°
2026-04-27 18:54 -20.60632 -46.85002 35683 ft 427 kts 162°
2026-04-27 18:54 -20.63486 -46.84236 35598 ft 421 kts 179°
2026-04-27 18:54 -20.66390 -46.84307 35429 ft 415 kts 194°
2026-04-27 18:55 -20.69112 -46.85188 35021 ft 404 kts 211°
2026-04-27 18:55 -20.71523 -46.86607 34614 ft 401 kts 214°
2026-04-27 18:55 -20.73951 -46.88083 33996 ft 404 kts 214°
2026-04-27 18:55 -20.76226 -46.89858 32871 ft 404 kts 230°
2026-04-27 18:56 -20.78172 -46.92081 31814 ft 416 kts 231°
2026-04-27 18:56 -20.80145 -46.94372 30750 ft 421 kts 231°
2026-04-27 18:56 -20.82126 -46.96675 29678 ft 421 kts 231°
2026-04-27 18:56 -20.84095 -46.98967 28390 ft 420 kts 231°
2026-04-27 18:57 -20.86082 -47.01284 26666 ft 425 kts 231°
2026-04-27 18:57 -20.88092 -47.03624 25213 ft 426 kts 231°
2026-04-27 18:57 -20.90055 -47.05899 24620 ft 404 kts 231°
2026-04-27 18:57 -20.91915 -47.08050 24095 ft 383 kts 231°
2026-04-27 18:58 -20.93674 -47.10085 23884 ft 365 kts 231°
2026-04-27 18:58 -20.94808 -47.11402 23739 ft 363 kts 232°
2026-04-27 18:58 -20.97084 -47.14063 23428 ft 360 kts 232°
2026-04-27 18:58 -20.98761 -47.16024 23157 ft 353 kts 232°
2026-04-27 18:59 -21.00412 -47.17949 22773 ft 349 kts 231°
2026-04-27 18:59 -21.02041 -47.19852 22359 ft 345 kts 232°
2026-04-27 18:59 -21.03651 -47.21737 21960 ft 341 kts 232°
2026-04-27 18:59 -21.05244 -47.23600 21558 ft 337 kts 231°
2026-04-27 19:00 -21.06820 -47.25439 21169 ft 334 kts 231°
2026-04-27 19:00 -21.08384 -47.27268 20785 ft 331 kts 231°
2026-04-27 19:00 -21.09931 -47.29078 20400 ft 328 kts 231°
2026-04-27 19:00 -21.11464 -47.30871 20014 ft 325 kts 231°
2026-04-27 19:01 -21.12981 -47.32646 19634 ft 322 kts 231°
2026-04-27 19:01 -21.14490 -47.34413 19253 ft 320 kts 231°
2026-04-27 19:01 -21.15988 -47.36171 18876 ft 318 kts 230°
2026-04-27 19:01 -21.17457 -47.37890 18508 ft 317 kts 230°
2026-04-27 19:02 -21.18942 -47.39624 18125 ft 315 kts 230°
2026-04-27 19:02 -21.20433 -47.41369 17719 ft 312 kts 230°
2026-04-27 19:02 -21.21868 -47.43050 17359 ft 308 kts 230°
2026-04-27 19:02 -21.23306 -47.44737 17003 ft 305 kts 230°
2026-04-27 19:03 -21.24727 -47.46405 16648 ft 301 kts 230°
2026-04-27 19:03 -21.26137 -47.48060 16289 ft 298 kts 230°
2026-04-27 19:03 -21.27529 -47.49694 15945 ft 295 kts 230°
2026-04-27 19:03 -21.28443 -47.50768 15721 ft 294 kts 230°
2026-04-27 19:04 -21.30272 -47.52922 15261 ft 291 kts 230°
2026-04-27 19:04 -21.31628 -47.54515 14926 ft 288 kts 230°
2026-04-27 19:04 -21.32976 -47.56095 14588 ft 286 kts 229°
2026-04-27 19:04 -21.34316 -47.57669 14255 ft 284 kts 229°
2026-04-27 19:05 -21.35647 -47.59235 13920 ft 283 kts 229°
2026-04-27 19:05 -21.36973 -47.60794 13562 ft 282 kts 230°
2026-04-27 19:05 -21.38289 -47.62346 13214 ft 280 kts 230°
2026-04-27 19:05 -21.39597 -47.63890 12879 ft 279 kts 230°
2026-04-27 19:06 -21.40898 -47.65423 12539 ft 277 kts 229°
2026-04-27 19:06 -21.42195 -47.66952 12218 ft 276 kts 230°
2026-04-27 19:06 -21.43487 -47.68473 11887 ft 275 kts 230°
2026-04-27 19:06 -21.44761 -47.69972 11553 ft 275 kts 230°
2026-04-27 19:07 -21.46048 -47.71484 11227 ft 274 kts 230°
2026-04-27 19:07 -21.47348 -47.73010 10893 ft 273 kts 230°
2026-04-27 19:07 -21.48608 -47.74491 10563 ft 272 kts 230°
2026-04-27 19:07 -21.49878 -47.75989 10235 ft 271 kts 230°
2026-04-27 19:08 -21.51146 -47.77484 9912 ft 270 kts 230°
2026-04-27 19:08 -21.52408 -47.78976 9561 ft 269 kts 230°
2026-04-27 19:08 -21.53665 -47.80458 9248 ft 266 kts 230°
2026-04-27 19:08 -21.54896 -47.81909 8919 ft 259 kts 230°
2026-04-27 19:09 -21.56091 -47.83319 8614 ft 253 kts 231°
2026-04-27 19:09 -21.57258 -47.84697 8302 ft 246 kts 231°
2026-04-27 19:09 -21.58392 -47.86037 8024 ft 239 kts 231°
2026-04-27 19:09 -21.59498 -47.87346 7711 ft 234 kts 231°
2026-04-27 19:10 -21.60598 -47.88606 7422 ft 229 kts 224°
2026-04-27 19:10 -21.61932 -47.89521 7139 ft 228 kts 206°
2026-04-27 19:10 -21.63460 -47.89931 6865 ft 227 kts 187°
2026-04-27 19:10 -21.64505 -47.89958 6690 ft 226 kts 184°
2026-04-27 19:11 -21.66604 -47.89989 6312 ft 225 kts 183°
2026-04-27 19:11 -21.68154 -47.90018 6023 ft 221 kts 184°
2026-04-27 19:11 -21.69682 -47.90045 5740 ft 220 kts 185°
2026-04-27 19:11 -21.71204 -47.90076 5476 ft 215 kts 185°
2026-04-27 19:12 -21.72662 -47.90104 5224 ft 205 kts 185°
2026-04-27 19:12 -21.74063 -47.90130 4969 ft 198 kts 185°
2026-04-27 19:12 -21.75414 -47.90153 4725 ft 190 kts 185°
2026-04-27 19:12 -21.76711 -47.90178 4497 ft 183 kts 184°
2026-04-27 19:13 -21.77957 -47.90202 4275 ft 175 kts 184°
2026-04-27 19:13 -21.79126 -47.90224 4086 ft 161 kts 184°
2026-04-27 19:13 -21.80209 -47.90245 3860 ft 156 kts 184°
2026-04-27 19:13 -21.81277 -47.90265 3658 ft 152 kts 186°
2026-04-27 19:14 -21.82346 -47.90287 3454 ft 155 kts 186°
2026-04-27 19:14 -21.83428 -47.90312 3257 ft 156 kts 187°
2026-04-27 19:14 -21.84507 -47.90335 3086 ft 155 kts 185°
2026-04-27 19:14 -21.85564 -47.90358 2836 ft 149 kts 186°
2026-04-27 19:15 -21.86602 -47.90363 2654 ft 149 kts 185°
2026-04-27 19:15 -21.87567 -47.90384 2626 ft 119 kts 180°
2026-04-27 19:15 -21.88023 -47.90391 2646 ft 27 kts 181°
2026-04-27 19:15 -21.88138 -47.90373 2653 ft 14 kts 145°
2026-04-27 19:16 -21.88164 -47.90375 2650 ft 2 kts 257°
2026-04-27 19:16 -21.88157 -47.90384 2649 ft 4 kts 309°
2026-04-27 19:16 -21.88076 -47.90389 2645 ft 14 kts
2026-04-27 19:16 -21.87955 -47.90384 2643 ft 19 kts
2026-04-27 19:17 -21.87824 -47.90380 2638 ft 19 kts
2026-04-27 19:17 -21.87733 -47.90379 2639 ft 11 kts
2026-04-27 19:17 -21.87686 -47.90403 2632 ft 5 kts 280°
2026-04-27 19:17 -21.87689 -47.90431 2634 ft 4 kts 264°
2026-04-27 19:18 -21.87690 -47.90477 2633 ft 8 kts 271°
2026-04-27 19:18 -21.87692 -47.90547 2638 ft 10 kts 255°
2026-04-27 19:18 -21.87730 -47.90584 2630 ft 3 kts 228°
2026-04-27 19:18 -21.87745 -47.90618 2628 ft 5 kts 230°
2026-04-27 19:19 -21.87752 -47.90618 2631 ft 0 kts 175°